Regional Weather Roundup
Issued by NWS

Home | Current Version | Previous Version | Graphics & Text | Print | Product List | Glossary On
Versions: 1 2 3 4 5 6 7 8 9 10 11 12 13 14 15 16 17 18 19 20 21 22 23 24 25 26 27 28 29 30 31 32 33 34 35 36 37 38 39 40 41 42 43 44 45 46 47 48 49 50
000
ASUS43 KLOT 301508
RWRIL

ILLINOIS REGIONAL WEATHER ROUNDUP
NATIONAL WEATHER SERVICE CHICAGO/ROMEOVILLE IL
1000 AM CDT FRI SEP 30 2016

NOTE: "FAIR" INDICATES FEW OR NO CLOUDS BELOW 12,000 FEET WITH NO
SIGNIFICANT WEATHER AND/OR OBSTRUCTIONS TO VISIBILITY.

* THESE STATIONS ARE NOT UNDER NWS QUALITY CONTROL. THEY ALSO MAY NOT
  REPORT WEATHER SUCH AS PRECIPITATION OR FOG.

ILZ001-002-007-009-015-016-024-301600-
NORTHWEST ILLINOIS

CITY           SKY/WX    TMP DP  RH WIND       PRES   REMARKS
MOLINE         CLOUDY    61  56  83 N9        30.18S
STERLING*      CLOUDY    61  57  87 N9        30.19R
SAVANNA*       CLOUDY    60  56  86 N10       30.20R
$$

ILZ003-004-008-010-011-017-018-301600-
NORTH CENTRAL ILLINOIS

CITY           SKY/WX    TMP DP  RH WIND       PRES   REMARKS
ROCKFORD       CLOUDY    62  58  86 NE14      30.20S
FREEPORT*      CLOUDY    60  56  86 NE14      30.22R
ROCHELLE*      CLOUDY    60  58  96 NE15      30.18R
DE KALB*       CLOUDY    61  59  91 NE13      30.17S
$$

ILZ005-006-012>014-019>023-301600-
NORTHEAST ILLINOIS

CITY           SKY/WX    TMP DP  RH WIND       PRES   REMARKS
CHICAGO-OHARE  LGT RAIN  61  59  93 NE13G21   30.15R FOG
CHICAGO-MIDWAY LGT RAIN  63  59  87 NE16      30.14R
AURORA         CLOUDY    63  59  87 NE12G21   30.15R
LANSING*       LGT RAIN  61  61  99 NE10G16   30.13S
JOLIET*        CLOUDY    64  61  91 NE10      30.13S
WAUKEGAN       LGT RAIN  61  60  97 NE10      30.17S FOG
DUPAGE AIRPORT CLOUDY    62  59  90 NE13G22   30.15R
KANKAKEE*      RAIN      61  60  94 NE8G18    30.12S
WHEELING       LGT RAIN  61  59  93 NE9       30.18R
MORRIS*        LGT RAIN  63  59  89 CALM      30.12S
ROMEOVILLE*    CLOUDY    63  62  97 NE15G23   30.13S
NORTHERLY ISL    N/A     62  58  86 NE17        N/A
$$

LMZ740>746-301600-
SOUTHERN LAKE MICHIGAN

STATION/POSITION SKY/WX   TEMP    WIND        PRES    VSBY  WAVE
                          AIR SEA DIR/SP/G                  HT/PER
                          (F)     (DEG/KT/KT) (MB)    (MI)  (FT/S)
SOUTHERN BUOY              62 67   70/ 21/ 25 1021.2R         6/ 6
WILMETTE HARBOR            62 58   80/ 14/ 19   N/A           5/ 5
HARRISON CRIB              63      50/ 25/ 27   N/A
BURNHAM HARBOR             62      40/ 14/ 19   N/A
CALUMET HARBOR             62      40/ 15/ 19 1019.9R
BURNS HARBOR               61      40/ 18/ 24 1020.3R
MICHIGAN CITY              60      30/ 18/ 20   N/A
MICHIGAN CITY 6N           61 64   40/ 16/ 21   N/A           6/ 6
ST. JOSEPH                 57 51   30/ 12/ 16 1020.6          4/ 6
$$

ILZ025>027-034>036-040-047-049-050-058-095>099-301600-
WEST-CENTRAL ILLINOIS

CITY           SKY/WX    TMP DP  RH WIND       PRES   REMARKS
QUINCY         CLOUDY    63  56  78 N16       30.16S
GALESBURG*     CLOUDY    60  56  85 N16       30.16S
MACOMB*        CLOUDY    61  56  83 N15       30.19R
JACKSONVILLE*  CLOUDY    62  57  84 N10G16    30.13R
PITTSFIELD*    CLOUDY    63  57  81 N10G16    30.16R
$$

ILZ028>032-037-038-041>044-048-051>054-059>061-301600-
CENTRAL ILLINOIS

CITY           SKY/WX    TMP DP  RH WIND       PRES   REMARKS
PONTIAC        CLOUDY    64  63  97 NE10      30.13R
BLOOMINGTON    CLOUDY    61  59  93 NE12      30.12R
DECATUR        CLOUDY    62  58  86 NE12      30.10R
PEORIA         LGT RAIN  60  60 100 N5        30.14R FOG
LACON*         CLOUDY    59  58  94 N7        30.14R
LINCOLN*       CLOUDY    62  61  97 N9        30.11R
SPRINGFIELD    CLOUDY    62  59  90 N13       30.12S FOG
TAYLORVILLE    CLOUDY    61  59  94 N10       30.10R
$$

ILZ033-039-045-046-055>057-062-063-301600-
EAST-CENTRAL ILLINOIS

CITY           SKY/WX    TMP DP  RH WIND       PRES   REMARKS
CHAMPAIGN      LGT RAIN  61  58  90 N12       30.09R FOG
RANTOUL*       CLOUDY    63  60  93 NE10      30.09R
MATTOON        LGT RAIN  61  58  90 N12       30.07R
PARIS*         LGT RAIN  60  60 100 CALM      30.07S
$$

ILZ079-100>102-301600-
SOUTHWEST ILLINOIS

CITY           SKY/WX    TMP DP  RH WIND       PRES   REMARKS
ALTON          CLOUDY    59  57  94 NW6       30.11S
BELLEVILLE     MOSUNNY   61  61 100 VRB6      30.09R
CAHOKIA*       CLOUDY    63  57  81 N12       30.11R
SPARTA*        LGT RAIN  60  59  95 NW9       30.10S
$$

ILZ064>066-069>071-074>076-080>082-084>086-088>090-092>094-301600-
SOUTH-CENTRAL ILLINOIS

CITY           SKY/WX    TMP DP  RH WIND       PRES   REMARKS
CARBONDALE     LGT RAIN  60  60 100 NW8       30.08R FOG
CAIRO*         CLOUDY    64  57  80 N9        30.09R
EFFINGHAM*     CLOUDY    62  62  99 N3        30.08S
MARION         RAIN      61  61 100 NW9       30.08R
MT. VERNON     CLOUDY    61  55  82 N5        30.07R
CENTRALIA*     CLOUDY    62  61  97 N6        30.07R
SALEM*         CLOUDY    62  59  90 N8        30.07R
METROPOLIS*    CLOUDY    63  58  85 W5        30.09R
$$

ILZ067-068-072-073-078-083-087-091-301600-
SOUTHEAST ILLINOIS

CITY           SKY/WX    TMP DP  RH WIND       PRES   REMARKS
LAWRENCEVILLE  PTSUNNY   64  58  80 N7        30.04S
FLORA*         CLOUDY    63  61  93 N6        30.06S
FAIRFIELD*     CLOUDY    61  61  99 N3        30.05S
HARRISBURG*    RAIN      60  60  99 W7        30.06R
ROBINSON*      PTSUNNY   63  61  91 N8        30.05S
CARMI*         LGT RAIN  61  61 100 NW5       30.04S
$$

ABBREVIATIONS USED IN REMARKS
   TC - TEMPERATURE IN CELSIUS
  WCI - WIND CHILL INDEX
   HX - HEAT INDEX
  VSB - VISIBILITY
$$





USA.gov is the U.S. government's official web portal to all federal, state and local government web resources and services.